Location: Fauquembergues
(50.6005°N, 2.0987°E)
Time: 10:56:17
(UTC+00:00)

Cosmos 2278 - Pass Details

Date: 14 July 2020
Orbit: 838 x 854 km, 71.1° (Epoch: 06 August)

Event Time Altitude Azimuth Distance (km) Brightness Sun altitude
Rises 01:58:16 0° 330° (NNW) 3,435 7.3 -13.0°
Reaches altitude 10° 02:00:44 10° 331° (NNW) 2,496 6.6 -12.8°
Maximum altitude 02:06:30 84° 60° (ENE) 866 3.8 -12.4°
Drops below altitude 10° 02:12:13 10° 150° (SSE) 2,479 5.9 -11.9°
Sets 02:14:39 0° 151° (SSE) 3,410 6.6 -11.7°
